| time (UTC) | temp F | wind direction | speed knots | gust knots | rain 1hr in | rain 24hr in | rain mn in | humidity % | barometer mb |
| 20260506135254 | 55 | 0 | 0.0 | 0.0 | 0.00 | 0.00 | 0.00 | 87 | 1018.3 |
| 20260506134753 | 55 | 0 | 0.0 | 0.9 | 0.00 | 0.00 | 0.00 | 87 | 1018.3 |
| 20260506134253 | 55 | 0 | 0.0 | 0.9 | 0.00 | 0.00 | 0.00 | 88 | 1018.2 |
| 20260506133739 | 55 | 0 | 0.0 | 0.9 | 0.00 | 0.00 | 0.00 | 88 | 1018.2 |
| 20260506133239 | 55 | 82 | 0.0 | 0.9 | 0.00 | 0.00 | 0.00 | 88 | 1018.2 |
| 20260506132739 | 55 | 0 | 0.0 | 0.9 | 0.00 | 0.00 | 0.00 | 88 | 1018.2 |
| 20260506132239 | 55 | 0 | 0.0 | 0.9 | 0.00 | 0.00 | 0.00 | 88 | 1018.2 |
| 20260506131739 | 55 | 161 | 0.0 | 0.9 | 0.00 | 0.00 | 0.00 | 88 | 1018.1 |
| 20260506131239 | 55 | 0 | 0.0 | 0.9 | 0.00 | 0.00 | 0.00 | 88 | 1018.1 |
| 20260506130739 | 55 | 0 | 0.0 | 1.7 | 0.00 | 0.00 | 0.00 | 88 | 1018.0 |
| 20260506130239 | 55 | 0 | 0.9 | 1.7 | 0.00 | 0.00 | 0.00 | 88 | 1018.0 |
| 20260506125740 | 55 | 96 | 0.9 | 1.7 | 0.00 | 0.00 | 0.00 | 87 | 1018.0 |
| 20260506125240 | 56 | 112 | 0.9 | 1.7 | 0.00 | 0.00 | 0.00 | 86 | 1018.0 |
| 20260506124739 | 56 | 99 | 0.9 | 1.7 | 0.00 | 0.00 | 0.00 | 85 | 1018.0 |
| 20260506124239 | 56 | 0 | 0.0 | 0.9 | 0.00 | 0.00 | 0.00 | 84 | 1017.9 |
| 20260506123740 | 56 | 0 | 0.0 | 0.9 | 0.00 | 0.00 | 0.00 | 84 | 1017.9 |
| 20260506123240 | 56 | 0 | 0.0 | 0.9 | 0.00 | 0.00 | 0.00 | 84 | 1017.9 |
| 20260506122739 | 56 | 0 | 0.0 | 0.9 | 0.00 | 0.00 | 0.00 | 84 | 1017.9 |
| 20260506122241 | 56 | 0 | 0.0 | 0.9 | 0.00 | 0.00 | 0.00 | 84 | 1017.9 |
| 20260506121740 | 56 | 0 | 0.0 | 1.7 | 0.00 | 0.00 | 0.00 | 84 | 1017.8 |
| 20260506121227 | 56 | 0 | 0.0 | 1.7 | 0.00 | 0.00 | 0.00 | 84 | 1017.8 |
| 20260506120726 | 56 | 0 | 0.0 | 1.7 | 0.00 | 0.00 | 0.00 | 84 | 1017.7 |
| 20260506120226 | 56 | 14 | 0.0 | 1.7 | 0.00 | 0.00 | 0.00 | 85 | 1017.7 |
| 20260506115727 | 56 | 23 | 0.0 | 1.7 | 0.00 | 0.00 | 0.00 | 85 | 1017.7 |
| 20260506115226 | 56 | 14 | 0.0 | 0.9 | 0.00 | 0.00 | 0.00 | 85 | 1017.7 |
| 20260506114727 | 55 | 4 | 0.0 | 1.7 | 0.00 | 0.00 | 0.00 | 86 | 1017.6 |
| 20260506114227 | 55 | 0 | 0.0 | 1.7 | 0.00 | 0.00 | 0.00 | 86 | 1017.6 |
| 20260506113726 | 55 | 0 | 0.0 | 0.9 | 0.00 | 0.00 | 0.00 | 86 | 1017.5 |
| 20260506113226 | 55 | 20 | 0.0 | 0.9 | 0.00 | 0.00 | 0.00 | 86 | 1017.5 |
| 20260506112725 | 55 | 12 | 0.0 | 0.9 | 0.00 | 0.00 | 0.00 | 86 | 1017.5 |
| 20260506112225 | 55 | 321 | 0.0 | 0.9 | 0.00 | 0.00 | 0.00 | 86 | 1017.4 |
| 20260506111725 | 55 | 0 | 0.0 | 0.0 | 0.00 | 0.00 | 0.00 | 86 | 1017.4 |
| 20260506111226 | 55 | 0 | 0.0 | 0.9 | 0.00 | 0.00 | 0.00 | 86 | 1017.3 |
| 20260506110711 | 55 | 342 | 0.0 | 1.7 | 0.00 | 0.00 | 0.00 | 86 | 1017.3 |
| 20260506110210 | 55 | 0 | 0.0 | 1.7 | 0.00 | 0.00 | 0.00 | 86 | 1017.2 |
| 20260506105711 | 55 | 5 | 0.0 | 0.9 | 0.00 | 0.00 | 0.00 | 86 | 1017.2 |
| 20260506105211 | 55 | 0 | 0.0 | 1.7 | 0.00 | 0.00 | 0.00 | 86 | 1017.1 |
| 20260506104710 | 55 | 0 | 0.0 | 1.7 | 0.00 | 0.00 | 0.00 | 87 | 1017.2 |
| 20260506104156 | 55 | 28 | 0.0 | 0.9 | 0.00 | 0.00 | 0.00 | 87 | 1017.1 |
| 20260506103656 | 55 | 0 | 0.0 | 0.9 | 0.00 | 0.00 | 0.00 | 88 | 1017.1 |
| 20260506103156 | 55 | 0 | 0.0 | 1.7 | 0.00 | 0.00 | 0.00 | 87 | 1017.1 |
| 20260506102656 | 55 | 0 | 0.0 | 1.7 | 0.00 | 0.00 | 0.00 | 87 | 1017.1 |
| 20260506102156 | 55 | 267 | 0.0 | 1.7 | 0.00 | 0.00 | 0.00 | 87 | 1017.0 |
| 20260506101656 | 55 | 0 | 0.0 | 0.9 | 0.00 | 0.00 | 0.00 | 87 | 1017.0 |
| 20260506101156 | 55 | 0 | 0.0 | 0.9 | 0.00 | 0.00 | 0.00 | 87 | 1017.0 |
| 20260506100656 | 55 | 0 | 0.0 | 0.9 | 0.00 | 0.00 | 0.00 | 87 | 1016.9 |
| 20260506100157 | 55 | 27 | 0.0 | 0.9 | 0.00 | 0.00 | 0.00 | 86 | 1016.8 |
| 20260506095656 | 55 | 0 | 0.0 | 0.0 | 0.00 | 0.00 | 0.00 | 86 | 1016.8 |
| 20260506095156 | 56 | 0 | 0.0 | 0.0 | 0.00 | 0.00 | 0.00 | 85 | 1016.7 |
| 20260506094657 | 56 | 0 | 0.0 | 0.0 | 0.00 | 0.00 | 0.00 | 85 | 1016.7 |
| 20260506094142 | 56 | 44 | 0.0 | 0.0 | 0.00 | 0.00 | 0.00 | 85 | 1016.7 |
| 20260506093642 | 56 | 0 | 0.0 | 0.0 | 0.00 | 0.00 | 0.00 | 84 | 1016.6 |
| 20260506093142 | 56 | 0 | 0.0 | 0.0 | 0.00 | 0.00 | 0.00 | 84 | 1016.6 |
| 20260506092641 | 56 | 0 | 0.0 | 0.0 | 0.00 | 0.00 | 0.00 | 84 | 1016.7 |
| 20260506092142 | 57 | 0 | 0.0 | 0.0 | 0.00 | 0.00 | 0.00 | 84 | 1016.7 |
| 20260506091627 | 57 | 0 | 0.0 | 0.9 | 0.00 | 0.00 | 0.00 | 83 | 1016.7 |
| 20260506091128 | 57 | 0 | 0.0 | 0.9 | 0.00 | 0.00 | 0.00 | 83 | 1016.7 |
| 20260506090628 | 57 | 0 | 0.0 | 0.9 | 0.00 | 0.00 | 0.00 | 81 | 1016.8 |
| 20260506090128 | 58 | 0 | 0.0 | 0.9 | 0.00 | 0.00 | 0.00 | 81 | 1016.7 |
| 20260506085629 | 58 | 0 | 0.0 | 0.0 | 0.00 | 0.00 | 0.00 | 80 | 1016.8 |
| 20260506085129 | 58 | 0 | 0.0 | 0.9 | 0.00 | 0.00 | 0.00 | 81 | 1016.8 |
| 20260506084629 | 58 | 0 | 0.0 | 0.9 | 0.00 | 0.00 | 0.00 | 81 | 1016.9 |
| 20260506084129 | 58 | 44 | 0.0 | 1.7 | 0.00 | 0.00 | 0.00 | 81 | 1016.9 |
| 20260506083627 | 58 | 0 | 0.0 | 1.7 | 0.00 | 0.00 | 0.00 | 81 | 1017.0 |
| 20260506083113 | 58 | 42 | 0.0 | 1.7 | 0.00 | 0.00 | 0.00 | 81 | 1017.1 |
| 20260506082612 | 58 | 0 | 0.0 | 1.7 | 0.00 | 0.00 | 0.00 | 81 | 1017.1 |
| 20260506082058 | 58 | 38 | 0.0 | 1.7 | 0.00 | 0.00 | 0.00 | 81 | 1017.1 |
| 20260506081558 | 58 | 0 | 0.0 | 1.7 | 0.00 | 0.00 | 0.00 | 81 | 1017.1 |
| 20260506081058 | 58 | 0 | 0.0 | 1.7 | 0.00 | 0.00 | 0.00 | 81 | 1017.0 |
| 20260506080543 | 58 | 356 | 0.0 | 1.7 | 0.00 | 0.00 | 0.00 | 81 | 1017.0 |
| 20260506073029 | 58 | 0 | 0.9 | 1.7 | 0.00 | 0.00 | 0.00 | 80 | 1016.7 |
| 20260506072529 | 58 | 357 | 0.9 | 1.7 | 0.00 | 0.00 | 0.00 | 80 | 1016.7 |
| 20260506072029 | 58 | 344 | 1.7 | 3.5 | 0.00 | 0.00 | 0.00 | 81 | 1016.6 |
| 20260506071530 | 58 | 333 | 1.7 | 3.5 | 0.00 | 0.00 | 0.00 | 80 | 1016.6 |
| 20260506071028 | 58 | 319 | 0.9 | 2.6 | 0.00 | 0.00 | 0.00 | 80 | 1016.5 |
| 20260506070528 | 58 | 322 | 0.9 | 2.6 | 0.00 | 0.00 | 0.00 | 80 | 1016.5 |
| 20260506062430 | 58 | 358 | 0.9 | 1.7 | 0.00 | 0.00 | 0.00 | 80 | 1016.1 |
| 20260506061930 | 58 | 19 | 0.9 | 2.6 | 0.00 | 0.00 | 0.00 | 80 | 1016.0 |
| 20260506061431 | 58 | 5 | 0.9 | 2.6 | 0.00 | 0.00 | 0.00 | 80 | 1016.0 |
| 20260506060930 | 58 | 289 | 0.0 | 0.9 | 0.00 | 0.00 | 0.00 | 80 | 1015.9 |
| 20260506060430 | 58 | 0 | 0.0 | 0.9 | 0.00 | 0.00 | 0.00 | 79 | 1015.9 |
| 20260506050928 | 59 | 275 | 0.9 | 1.7 | 0.00 | 0.00 | 0.00 | 76 | 1015.5 |
| 20260506050428 | 60 | 312 | 0.0 | 1.7 | 0.00 | 0.00 | 0.00 | 75 | 1015.4 |
| 20260506044900 | 60 | 0 | 0.0 | 1.7 | 0.00 | 0.00 | 0.00 | 73 | 1015.4 |
| 20260506044400 | 61 | 318 | 0.0 | 0.9 | 0.00 | 0.00 | 0.00 | 72 | 1015.3 |
| 20260506043900 | 61 | 323 | 0.0 | 1.7 | 0.00 | 0.00 | 0.00 | 72 | 1015.2 |
| 20260506043400 | 61 | 0 | 0.9 | 1.7 | 0.00 | 0.00 | 0.00 | 71 | 1015.1 |
| 20260506042901 | 61 | 337 | 0.9 | 1.7 | 0.00 | 0.00 | 0.00 | 71 | 1015.0 |
| 20260506042400 | 61 | 335 | 0.0 | 1.7 | 0.00 | 0.00 | 0.00 | 70 | 1014.9 |
| 20260506041900 | 62 | 0 | 0.0 | 1.7 | 0.00 | 0.00 | 0.00 | 70 | 1014.8 |
| 20260506041400 | 62 | 0 | 0.9 | 2.6 | 0.00 | 0.00 | 0.00 | 69 | 1014.8 |
| 20260506040901 | 62 | 182 | 0.9 | 2.6 | 0.00 | 0.00 | 0.00 | 69 | 1014.7 |
| 20260506040345 | 62 | 208 | 0.9 | 2.6 | 0.00 | 0.00 | 0.00 | 69 | 1014.7 |
| 20260506035846 | 62 | 0 | 0.0 | 1.7 | 0.00 | 0.00 | 0.00 | 69 | 1014.7 |
| 20260506035345 | 62 | 0 | 0.0 | 1.7 | 0.00 | 0.00 | 0.00 | 69 | 1014.7 |
| 20260506034845 | 62 | 0 | 0.0 | 1.7 | 0.00 | 0.00 | 0.00 | 70 | 1014.6 |
| 20260506034346 | 62 | 315 | 0.9 | 1.7 | 0.00 | 0.00 | 0.00 | 69 | 1014.6 |
| 20260506033846 | 62 | 279 | 0.9 | 2.6 | 0.00 | 0.00 | 0.00 | 69 | 1014.6 |
| 20260506033347 | 62 | 265 | 1.7 | 2.6 | 0.00 | 0.00 | 0.00 | 69 | 1014.5 |
| 20260506032833 | 62 | 266 | 1.7 | 2.6 | 0.00 | 0.00 | 0.00 | 69 | 1014.5 |
| 20260506032333 | 62 | 319 | 1.7 | 4.3 | 0.00 | 0.00 | 0.00 | 69 | 1014.5 |
| 20260506031832 | 63 | 346 | 1.7 | 4.3 | 0.00 | 0.00 | 0.00 | 68 | 1014.4 |
| 20260506031332 | 63 | 307 | 0.9 | 2.6 | 0.00 | 0.00 | 0.00 | 68 | 1014.4 |
| 20260506030832 | 63 | 0 | 0.9 | 2.6 | 0.00 | 0.00 | 0.00 | 68 | 1014.3 |
| 20260506030333 | 63 | 342 | 0.9 | 2.6 | 0.00 | 0.00 | 0.00 | 68 | 1014.3 |
| 20260506025832 | 63 | 333 | 0.9 | 1.7 | 0.00 | 0.00 | 0.00 | 68 | 1014.3 |
| 20260506025332 | 63 | 0 | 0.9 | 2.6 | 0.00 | 0.00 | 0.00 | 68 | 1014.1 |
| 20260506024831 | 63 | 333 | 0.9 | 2.6 | 0.00 | 0.00 | 0.00 | 68 | 1014.1 |
| 20260506024332 | 63 | 248 | 0.9 | 1.7 | 0.00 | 0.00 | 0.00 | 68 | 1014.1 |
| 20260506023832 | 63 | 155 | 1.7 | 4.3 | 0.00 | 0.00 | 0.00 | 68 | 1014.0 |
| 20260506023330 | 63 | 329 | 1.7 | 4.3 | 0.00 | 0.00 | 0.00 | 68 | 1014.1 |
| 20260506022830 | 63 | 173 | 1.7 | 4.3 | 0.00 | 0.00 | 0.00 | 68 | 1014.0 |
| 20260506022330 | 63 | 326 | 1.7 | 6.1 | 0.00 | 0.00 | 0.00 | 68 | 1013.9 |
| 20260506021830 | 64 | 32 | 1.7 | 6.1 | 0.00 | 0.00 | 0.00 | 68 | 1013.9 |
| 20260506021330 | 64 | 348 | 1.7 | 5.2 | 0.00 | 0.00 | 0.00 | 67 | 1013.9 |
| 20260506020832 | 64 | 300 | 0.9 | 3.5 | 0.00 | 0.00 | 0.00 | 66 | 1013.9 |
| 20260506020331 | 64 | 164 | 1.7 | 3.5 | 0.00 | 0.00 | 0.00 | 66 | 1013.8 |
| 20260506015817 | 64 | 326 | 1.7 | 3.5 | 0.00 | 0.00 | 0.00 | 65 | 1013.8 |
| 20260506015317 | 64 | 352 | 1.7 | 3.5 | 0.00 | 0.00 | 0.00 | 65 | 1013.8 |
| 20260506014817 | 64 | 317 | 1.7 | 4.3 | 0.00 | 0.00 | 0.00 | 66 | 1013.8 |
| 20260506014307 | 64 | 0 | 1.7 | 4.3 | 0.00 | 0.00 | 0.00 | 66 | 1013.8 |
| 20260506013803 | 64 | 347 | 1.7 | 3.5 | 0.00 | 0.00 | 0.00 | 65 | 1013.8 |
| 20260506013304 | 64 | 204 | 0.9 | 2.6 | 0.00 | 0.00 | 0.00 | 65 | 1013.8 |
| 20260506012804 | 64 | 322 | 1.7 | 3.5 | 0.00 | 0.00 | 0.00 | 66 | 1013.8 |
| 20260506012307 | 64 | 322 | 1.7 | 5.2 | 0.00 | 0.00 | 0.00 | 66 | 1013.8 |
| 20260506011802 | 64 | 11 | 1.7 | 5.2 | 0.00 | 0.00 | 0.00 | 65 | 1013.8 |
| 20260506011301 | 64 | 329 | 1.7 | 4.3 | 0.00 | 0.00 | 0.00 | 66 | 1013.9 |
| 20260506010802 | 64 | 337 | 2.6 | 4.3 | 0.00 | 0.00 | 0.00 | 66 | 1013.9 |
| 20260506010301 | 64 | 341 | 1.7 | 4.3 | 0.00 | 0.00 | 0.00 | 66 | 1013.9 |
| 20260506005803 | 64 | 317 | 1.7 | 5.2 | 0.00 | 0.00 | 0.00 | 65 | 1013.9 |
| 20260506005251 | 64 | 0 | 3.5 | 7.0 | 0.00 | 0.00 | 0.00 | 66 | 1014.0 |
| 20260506004751 | 65 | 318 | 3.5 | 7.0 | 0.00 | 0.00 | 0.00 | 65 | 1013.9 |
| 20260506004251 | 65 | 342 | 2.6 | 6.1 | 0.00 | 0.00 | 0.00 | 65 | 1013.9 |
| 20260506003751 | 65 | 341 | 2.6 | 4.3 | 0.00 | 0.00 | 0.00 | 65 | 1013.8 |
| 20260506003247 | 65 | 349 | 1.7 | 3.5 | 0.00 | 0.00 | 0.00 | 65 | 1013.8 |
| 20260506002747 | 65 | 184 | 1.7 | 5.2 | 0.00 | 0.00 | 0.00 | 64 | 1013.8 |
| 20260506002233 | 65 | 310 | 1.7 | 5.2 | 0.00 | 0.00 | 0.00 | 65 | 1013.7 |
| 20260506001732 | 65 | 0 | 1.7 | 5.2 | 0.00 | 0.00 | 0.00 | 64 | 1013.7 |
| 20260506001231 | 65 | 329 | 1.7 | 5.2 | 0.00 | 0.00 | 0.00 | 64 | 1013.7 |
| 20260506000731 | 65 | 0 | 2.6 | 6.1 | 0.00 | 0.00 | 0.00 | 63 | 1013.6 |
| 20260506000231 | 65 | 359 | 2.6 | 6.1 | 0.00 | 0.00 | 0.00 | 63 | 1013.6 |
| 20260505235731 | 65 | 336 | 1.7 | 5.2 | 0.00 | 0.00 | 0.00 | 63 | 1013.6 |
| 20260505235232 | 65 | 0 | 1.7 | 4.3 | 0.00 | 0.00 | 0.00 | 63 | 1013.6 |
| 20260505234733 | 65 | 306 | 1.7 | 4.3 | 0.00 | 0.00 | 0.00 | 64 | 1013.5 |
| 20260505234233 | 65 | 321 | 1.7 | 4.3 | 0.00 | 0.00 | 0.00 | 64 | 1013.6 |
| 20260505233731 | 65 | 330 | 1.7 | 4.3 | 0.00 | 0.00 | 0.00 | 65 | 1013.6 |
| 20260505233232 | 64 | 191 | 1.7 | 4.3 | 0.00 | 0.00 | 0.00 | 65 | 1013.6 |
| 20260505232732 | 64 | 348 | 1.7 | 4.3 | 0.00 | 0.00 | 0.00 | 66 | 1013.7 |
| 20260505232231 | 64 | 241 | 0.9 | 2.6 | 0.00 | 0.00 | 0.00 | 67 | 1013.7 |
| 20260505231732 | 64 | 50 | 0.9 | 3.5 | 0.00 | 0.00 | 0.00 | 67 | 1013.7 |
| 20260505231231 | 64 | 169 | 1.7 | 5.2 | 0.00 | 0.00 | 0.00 | 67 | 1013.8 |
| 20260505230722 | 64 | 37 | 1.7 | 5.2 | 0.00 | 0.00 | 0.00 | 67 | 1013.8 |
| 20260505230218 | 64 | 321 | 1.7 | 5.2 | 0.00 | 0.00 | 0.00 | 68 | 1013.9 |
| 20260505225718 | 63 | 319 | 1.7 | 3.5 | 0.00 | 0.00 | 0.00 | 68 | 1013.9 |
| 20260505225218 | 63 | 0 | 0.9 | 2.6 | 0.00 | 0.00 | 0.00 | 68 | 1013.9 |
| 20260505224718 | 63 | 342 | 0.9 | 2.6 | 0.00 | 0.00 | 0.00 | 68 | 1013.9 |
| 20260505224219 | 63 | 305 | 0.9 | 3.5 | 0.00 | 0.00 | 0.00 | 68 | 1013.9 |
| 20260505223718 | 63 | 359 | 1.7 | 3.5 | 0.00 | 0.00 | 0.00 | 69 | 1013.9 |
| 20260505223219 | 63 | 322 | 1.7 | 6.1 | 0.00 | 0.00 | 0.00 | 69 | 1014.0 |
| 20260505222709 | 63 | 0 | 1.7 | 6.1 | 0.00 | 0.00 | 0.00 | 69 | 1014.0 |
| 20260505222203 | 63 | 323 | 1.7 | 4.3 | 0.00 | 0.00 | 0.00 | 70 | 1014.0 |
| 20260505221652 | 63 | 321 | 1.7 | 4.3 | 0.00 | 0.00 | 0.00 | 70 | 1014.1 |
| 20260505221149 | 63 | 318 | 1.7 | 4.3 | 0.00 | 0.00 | 0.00 | 69 | 1014.1 |
| 20260505220649 | 63 | 290 | 1.7 | 4.3 | 0.00 | 0.00 | 0.00 | 69 | 1014.1 |
| 20260505220149 | 63 | 300 | 1.7 | 4.3 | 0.00 | 0.00 | 0.00 | 70 | 1014.1 |
| 20260505215649 | 63 | 324 | 1.7 | 4.3 | 0.00 | 0.00 | 0.00 | 70 | 1014.1 |
| 20260505215149 | 63 | 334 | 1.7 | 4.3 | 0.00 | 0.00 | 0.00 | 70 | 1014.2 |
| 20260505214649 | 63 | 252 | 1.7 | 4.3 | 0.00 | 0.00 | 0.00 | 69 | 1014.2 |
| 20260505214133 | 63 | 198 | 1.7 | 5.2 | 0.00 | 0.00 | 0.00 | 71 | 1014.2 |
| 20260505213635 | 63 | 20 | 1.7 | 5.2 | 0.00 | 0.00 | 0.00 | 71 | 1014.2 |
| 20260505213134 | 63 | 4 | 1.7 | 5.2 | 0.00 | 0.00 | 0.00 | 71 | 1014.2 |
| 20260505212634 | 63 | 350 | 1.7 | 5.2 | 0.00 | 0.00 | 0.00 | 71 | 1014.3 |
| 20260505212135 | 63 | 320 | 1.7 | 5.2 | 0.00 | 0.00 | 0.00 | 71 | 1014.2 |
| 20260505211636 | 62 | 339 | 2.6 | 6.1 | 0.00 | 0.00 | 0.00 | 72 | 1014.2 |
| 20260505211135 | 62 | 309 | 2.6 | 6.1 | 0.00 | 0.00 | 0.00 | 71 | 1014.2 |
| 20260505210636 | 62 | 328 | 2.6 | 6.1 | 0.00 | 0.00 | 0.00 | 71 | 1014.2 |
| 20260505210136 | 62 | 311 | 2.6 | 5.2 | 0.00 | 0.00 | 0.00 | 72 | 1014.2 |
| 20260505205636 | 62 | 343 | 1.7 | 3.5 | 0.00 | 0.00 | 0.00 | 71 | 1014.2 |
| 20260505205135 | 62 | 1 | 1.7 | 5.2 | 0.00 | 0.00 | 0.00 | 72 | 1014.4 |
| 20260505204635 | 62 | 319 | 1.7 | 5.2 | 0.00 | 0.00 | 0.00 | 72 | 1014.4 |
| 20260505204133 | 62 | 351 | 1.7 | 5.2 | 0.00 | 0.00 | 0.00 | 72 | 1014.4 |
| 20260505203633 | 61 | 6 | 1.7 | 5.2 | 0.00 | 0.00 | 0.00 | 72 | 1014.4 |
| 20260505203134 | 61 | 344 | 1.7 | 3.5 | 0.00 | 0.00 | 0.00 | 73 | 1014.4 |
| 20260505202635 | 61 | 345 | 1.7 | 3.5 | 0.00 | 0.00 | 0.00 | 74 | 1014.4 |
| 20260505202134 | 61 | 317 | 1.7 | 3.5 | 0.00 | 0.00 | 0.00 | 73 | 1014.4 |
| 20260505201634 | 61 | 14 | 1.7 | 3.5 | 0.00 | 0.00 | 0.00 | 73 | 1014.5 |
| 20260505201134 | 61 | 271 | 1.7 | 3.5 | 0.00 | 0.00 | 0.00 | 73 | 1014.5 |
| 20260505200635 | 61 | 67 | 1.7 | 3.5 | 0.00 | 0.00 | 0.00 | 73 | 1014.5 |
| 20260505200135 | 61 | 321 | 1.7 | 2.6 | 0.00 | 0.00 | 0.00 | 74 | 1014.5 |
| 20260505195635 | 61 | 320 | 1.7 | 3.5 | 0.00 | 0.00 | 0.00 | 74 | 1014.6 |
| 20260505195133 | 61 | 321 | 1.7 | 4.3 | 0.00 | 0.00 | 0.00 | 74 | 1014.6 |
| 20260505194634 | 61 | 343 | 1.7 | 4.3 | 0.00 | 0.00 | 0.00 | 74 | 1014.6 |
| 20260505194133 | 61 | 327 | 1.7 | 3.5 | 0.00 | 0.00 | 0.00 | 74 | 1014.6 |
| 20260505193634 | 61 | 320 | 1.7 | 4.3 | 0.00 | 0.00 | 0.00 | 75 | 1014.6 |
| 20260505193124 | 61 | 340 | 1.7 | 6.1 | 0.00 | 0.00 | 0.00 | 75 | 1014.6 |
| 20260505192624 | 61 | 326 | 2.6 | 6.1 | 0.00 | 0.00 | 0.00 | 75 | 1014.5 |
| 20260505192123 | 61 | 52 | 2.6 | 6.1 | 0.00 | 0.00 | 0.00 | 74 | 1014.5 |
| 20260505191624 | 61 | 316 | 2.6 | 6.1 | 0.00 | 0.00 | 0.00 | 74 | 1014.5 |
| 20260505191120 | 61 | 350 | 1.7 | 4.3 | 0.00 | 0.00 | 0.00 | 73 | 1014.5 |
| 20260505190621 | 61 | 326 | 1.7 | 7.8 | 0.00 | 0.00 | 0.00 | 74 | 1014.5 |
| 20260505190111 | 61 | 352 | 2.6 | 7.8 | 0.00 | 0.00 | 0.00 | 74 | 1014.5 |
| 20260505185611 | 61 | 358 | 2.6 | 5.2 | 0.00 | 0.00 | 0.00 | 75 | 1014.4 |
| 20260505185106 | 60 | 310 | 2.6 | 5.2 | 0.00 | 0.00 | 0.00 | 75 | 1014.3 |
| 20260505184605 | 60 | 277 | 2.6 | 5.2 | 0.00 | 0.00 | 0.00 | 75 | 1014.3 |
| 20260505184105 | 60 | 317 | 1.7 | 5.2 | 0.00 | 0.00 | 0.00 | 76 | 1014.3 |
| 20260505183607 | 60 | 345 | 1.7 | 4.3 | 0.00 | 0.00 | 0.00 | 77 | 1014.3 |
| 20260505183106 | 60 | 195 | 2.6 | 8.7 | 0.00 | 0.00 | 0.00 | 78 | 1014.3 |
| 20260505182600 | 59 | 323 | 2.6 | 8.7 | 0.00 | 0.00 | 0.00 | 79 | 1014.3 |
| 20260505182100 | 59 | 342 | 2.6 | 5.2 | 0.00 | 0.00 | 0.00 | 79 | 1014.3 |
| 20260505181600 | 59 | 176 | 1.7 | 6.1 | 0.00 | 0.00 | 0.00 | 79 | 1014.3 |
| 20260505181054 | 59 | 341 | 1.7 | 6.1 | 0.00 | 0.00 | 0.00 | 79 | 1014.3 |
| 20260505180551 | 59 | 348 | 1.7 | 4.3 | 0.00 | 0.00 | 0.00 | 79 | 1014.3 |
| 20260505180042 | 59 | 186 | 1.7 | 4.3 | 0.00 | 0.00 | 0.00 | 81 | 1014.3 |
| 20260505175536 | 58 | 343 | 1.7 | 3.5 | 0.00 | 0.00 | 0.00 | 82 | 1014.3 |
| 20260505175038 | 58 | 285 | 1.7 | 3.5 | 0.00 | 0.00 | 0.00 | 82 | 1014.3 |
| 20260505174538 | 58 | 356 | 1.7 | 3.5 | 0.00 | 0.00 | 0.00 | 82 | 1014.3 |
| 20260505174037 | 58 | 310 | 1.7 | 4.3 | 0.00 | 0.00 | 0.00 | 81 | 1014.3 |
| 20260505173537 | 58 | 337 | 1.7 | 4.3 | 0.00 | 0.00 | 0.00 | 80 | 1014.2 |
| 20260505173038 | 58 | 180 | 0.9 | 3.5 | 0.00 | 0.00 | 0.00 | 80 | 1014.2 |
| 20260505172538 | 58 | 33 | 0.9 | 3.5 | 0.00 | 0.00 | 0.00 | 81 | 1014.2 |
| 20260505172037 | 58 | 1 | 0.9 | 3.5 | 0.00 | 0.00 | 0.00 | 80 | 1014.1 |
| 20260505171535 | 58 | 334 | 1.7 | 4.3 | 0.00 | 0.00 | 0.00 | 80 | 1014.1 |
| 20260505171035 | 58 | 316 | 1.7 | 5.2 | 0.00 | 0.00 | 0.00 | 80 | 1014.2 |
| 20260505170524 | 58 | 320 | 1.7 | 5.2 | 0.00 | 0.00 | 0.00 | 80 | 1014.2 |
| 20260505170026 | 58 | 222 | 1.7 | 4.3 | 0.00 | 0.00 | 0.00 | 80 | 1014.1 |
| 20260505165522 | 58 | 355 | 1.7 | 5.2 | 0.00 | 0.00 | 0.00 | 79 | 1014.0 |
| 20260505165012 | 58 | 344 | 1.7 | 5.2 | 0.00 | 0.00 | 0.00 | 79 | 1014.0 |
| 20260505164514 | 58 | 326 | 1.7 | 5.2 | 0.00 | 0.00 | 0.00 | 78 | 1014.0 |
| 20260505164006 | 58 | 336 | 1.7 | 5.2 | 0.00 | 0.00 | 0.00 | 79 | 1014.0 |
| 20260505163454 | 58 | 212 | 2.6 | 5.2 | 0.00 | 0.00 | 0.00 | 79 | 1014.0 |
| 20260505162955 | 58 | 339 | 2.6 | 5.2 | 0.00 | 0.00 | 0.00 | 78 | 1014.0 |
| 20260505162452 | 58 | 5 | 1.7 | 3.5 | 0.00 | 0.00 | 0.00 | 79 | 1014.0 |
| 20260505161952 | 57 | 332 | 0.9 | 2.6 | 0.00 | 0.00 | 0.00 | 79 | 1014.1 |
| 20260505161452 | 57 | 336 | 0.9 | 2.6 | 0.00 | 0.00 | 0.00 | 79 | 1014.0 |
| 20260505160952 | 57 | 216 | 1.7 | 3.5 | 0.00 | 0.00 | 0.00 | 79 | 1014.0 |
| 20260505160437 | 57 | 333 | 1.7 | 3.5 | 0.00 | 0.00 | 0.00 | 79 | 1014.0 |
| 20260505152938 | 56 | 303 | 0.9 | 3.5 | 0.00 | 0.00 | 0.00 | 81 | 1013.9 |
| 20260505152439 | 56 | 359 | 1.7 | 3.5 | 0.00 | 0.00 | 0.00 | 81 | 1013.8 |
| 20260505151937 | 56 | 0 | 0.9 | 3.5 | 0.00 | 0.00 | 0.00 | 81 | 1013.7 |
| 20260505151437 | 56 | 349 | 0.9 | 2.6 | 0.00 | 0.00 | 0.00 | 81 | 1013.7 |
| 20260505150937 | 56 | 0 | 0.9 | 1.7 | 0.00 | 0.00 | 0.00 | 81 | 1013.7 |
| 20260505150437 | 56 | 337 | 0.9 | 1.7 | 0.00 | 0.00 | 0.00 | 81 | 1013.6 |
| 20260505140353 | 55 | 0 | 0.9 | 2.6 | 0.00 | 0.00 | 0.00 | 85 | 1013.2 |